Regional Weather Roundup
Issued by NWS Wakefield, VA

Home | Current Version | Previous Version | Text Only | Print | Product List | Glossary On
Versions: 1 2 3 4 5 6 7 8 9 10 11 12 13 14 15 16 17 18 19 20 21 22 23 24 25 26 27 28 29 30 31 32 33 34 35 36 37 38 39 40 41 42 43 44 45 46 47 48 49 50
000
ASUS41 KAKQ 240714
RWRAKQ

REGIONAL WEATHER ROUNDUP
NATIONAL WEATHER SERVICE WAKEFIELD VA
200 AM EST FRI FEB 24 2017

Note: "fair" indicates few or no clouds below 12,000 feet with no
significant weather and/or obstructions to visibility. * = Denotes
station may not report precipitation (e.g., rain,snow,etc.),
thunder or fog.

VAZ042-051-052>054-056-240800-
NORTHERN VIRGINIA

CITY           SKY/WX    TMP DP  RH WIND       PRES   REMARKS
WASH NATIONAL  PTCLDY    58  52  80 S9        29.90S
DULLES         PTCLDY    59  49  69 S6        29.89R
FORT BELVOIR   CLEAR     50  46  87 CALM      29.90S
QUANTICO       CLEAR     55  51  86 SW8       29.91F
FREDERICKSBRG* CLEAR     59  54  84 S6        29.90S
STAFFORD*      CLEAR     56  53  88 CALM      29.95R
WARRENTON      CLEAR     48  44  86 CALM      29.89S
CULPEPER*      CLEAR     50  49  97 CALM      29.91R
MANASSAS*      PTCLDY    48  47  96 CALM      29.90S
LEESBURG*      CLOUDY    59  54  82 MISG      29.90R
WINCHESTER     PTCLDY    55  48  76 S3        29.87S
FRONT ROYAL*   NOT AVBL
LURAY*         NOT AVBL
$$

VAZ048-049-060>072-079>083-240800-
CENTRAL AND SOUTH CENTRAL VIRGINIA

CITY           SKY/WX    TMP DP  RH WIND       PRES   REMARKS
RICHMOND       CLEAR     56  54  93 S6        29.92F
CHESTERFIELD*  FAIR      55  39  54 S5        29.94S
PETERSBURG*    FOG       46  45  96 CALM      29.93F VSB 1
HANOVER        CLEAR     56  51  84 S6        29.93F
TAPPAHANNOCK*  CLEAR     57  53  86 S3        29.93F
QUINTON*       NOT AVBL
CHARLOTTSVILLE CLEAR     58  52  80 S7        29.89S
GORDONSVILLE*  NOT AVBL
ORANGE*        CLEAR     46  45  93 CALM      29.92R
LOUISA*        CLEAR     61  54  77 S3        29.90S
BUMPASS*       NOT AVBL
FARMVILLE*     CLEAR     55  53  93 CALM      29.90F
CREWE*         NOT AVBL
FORT PICKETT*  NOT AVBL
CHASE CITY*    NOT AVBL
CLARKSVILLE*   NOT AVBL
SOUTH HILL*      N/A     51  51 100 CALM      29.98F VSB 3/4
LAWRENCEVILLE* NOT AVBL
EMPORIA*         N/A     45  45 100 CALM      29.94F
$$

VAZ088>098-240800-
SOUTHEAST VIRGINIA

CITY           SKY/WX    TMP DP  RH WIND       PRES   REMARKS
NORFOLK        CLEAR     57  52  83 S8        29.94S
VIRGINIA BEACH CLEAR     57  53  86 S6        29.94S
NORFOLK NAVAL  CLEAR     58  52  80 S3        29.95S
WEST POINT*    CLEAR     53  51  94 CALM      29.94F
SALUDA*        NOT AVBL
NEWPORT NEWS   CLEAR     52  51  97 CALM      29.94S
LANGLEY AFB    CLEAR     55  54  96 S3        29.94R
FORT EUSTIS    CLEAR     53  49  87 SE3       29.91S
WILLIAMSBURG*  CLEAR     54  54 100 CALM      29.94F
HR EXEC AP*    NOT AVBL
FRANKLIN*      CLEAR     49  48  96 CALM      29.95S
US460-WAKEFLD  CLEAR     50  49  96 CALM      29.94S
$$

VAZ020-022-025-037-045-240800-
WEST CENTRAL AND SOUTHWEST VIRGINIA

CITY           SKY/WX    TMP DP  RH WIND       PRES   REMARKS
STAUNTON*      CLEAR     46  44  93 CALM      29.92F
WAYNESBORO*    NOT AVBL
HOT SPRINGS VA CLEAR     52  46  82 S7        29.95F
LYNCHBURG      NOT AVBL
DANVILLE       CLEAR     50  49  96 CALM      29.92S
SOUTH BOSTON*  NOT AVBL
MARTINSVILLE   CLEAR     45  45  97 CALM      29.95R FOG
ROANOKE        CLEAR     53  50  89 CALM      29.93S
BLACKSBURG     PTCLDY    47  46  95 CALM      29.96S
DUBLIN*          N/A     50  50 100 CALM      29.93F FOG
MARION*        PTCLDY    55  49  79 CALM      29.94S
HILLSVILLE*    CLOUDY    55  50  82 S7        29.93S
RICHLANDS*     FAIR      57  47  69 SE3       29.90S
WISE*          CLOUDY    59  46  63 S12       29.89F
ABINGDON*      PTCLDY    54  49  85 CALM      29.89S
$$

MDZ021>025-VAZ099-100-240800-
SOUTHERN MARYLAND AND THE DELMARVA PENINSULA

CITY           SKY/WX    TMP DP  RH WIND       PRES   REMARKS
PATUXENT RIVER CLEAR     58  54  86 SW5       29.92S
BAY BRIDGE APT CLEAR     55  52  88 S8        29.91F
LEONARDTOWN    CLEAR     59  52  77 S3        29.93F
DOVER          CLEAR     56  56 100 S9        29.92S
GEORGETOWN     CLEAR     56  51  84 SW6       29.95R
EASTON         CLEAR     58  52  81 S6        29.96F
CAMBRIDGE      CLEAR     52  50  93 S5        29.93F
SALISBURY      CLEAR     53  52  96 CALM      29.95R
OCEAN CITY     CLEAR     53  50  89 S5        29.96R
WALLOPS ISLAND CLEAR     50  50 100 S7        29.96R
ACCOMACK*      CLEAR     55  52  92 S6        29.95R
$$

NCZ012>017-030>032-240800-
NORTH CENTRAL AND EASTERN NORTH CAROLINA

CITY           SKY/WX    TMP DP  RH WIND       PRES   REMARKS
ROANOKE RAPIDS FAIR      50  50 100 CALM      29.93F FOG
RALEIGH        CLEAR     54  50  86 CALM      29.93S
ELIZABETH CITY CLOUDY    55  54  96 CALM      29.95S
AHOSKIE*         N/A     51  50  98 S3        29.94F FOG
EDENTON*       CLOUDY    55  53  90 CALM      29.95F
CURRITUCK*     CLOUDY    54  54 100 CALM      29.96S
KILL DEVIL HLS NOT AVBL
MANTEO         CLOUDY    58  56  94 CALM      29.95S
CAPE HATTERAS  MOCLDY    66  61  84 SE9       29.93S HAZE
TARBORO*       NOT AVBL
GOLDSBORO      CLEAR     55  55 100 CALM      29.91F
WASHINGTON     PTCLDY    53  52  97 CALM      29.94F
GREENVILLE     FOG       52  52 100 CALM      29.95F VSB 1/2
NEW BERN       CLOUDY    56  56 100 CALM      29.94S
WILMINGTON     MOCLDY    57  57 100 NE5       29.90F
$$

VAZ048-240800-
ELSEWHERE

CITY           SKY/WX    TMP DP  RH WIND       PRES   REMARKS
HARRISBURG PA  CLOUDY    58  52  80 E5        29.86S
BALTIMORE      PTCLDY    52  50  93 CALM      29.90S
ANNAPOLIS      CLEAR     51  48  89 SE6       29.91S
ANDREWS AFB    CLEAR     58  52  79 S10       29.90S
PHILADELPHIA   CLEAR     55  50  83 S7        29.93R
HENDERSON NC   CLEAR     50  47  90 S3        29.92F
GREENSBORO     CLEAR     54  52  93 SW5       29.91F
ROCKY MOUNT    CLEAR     49  49 100 CALM      29.93F
$$

VAZ100-240800-
MARINE

STATION/POSITION TIME  TEMP    WIND        PRES    WAVE   SWELL
                       AIR SEA DIR/SP/G            HT/PER HT/PER
                 (UTC) (F)     (DEG/KT/KT) (MB)    (FT/S) (FT/S)
CAPE MAY NJ      0648      43  140/  4/  6 1013.8R
LEWES DE         0648      43  220/  4/  6 1013.8R
OCEAN-CITY-INLET 0648      48  230/  5/  6 1014.7R
WACHAPREAGUE VA  0648      55  220/  2/  3 1014.1R
THOMAS POINT MD  0700   51 43  170/ 15/ 15   N/A
GOOSES REEF MD   0700   47 44  170/  8/ 10 1013.6    1/ 2
COVE POINT MD    0648          190/  9/ 10 1013.9F
SOLOMONS ISLAND  0648      45  140/  3/  4   N/A
BISHOPS HEAD MD  0648      49  160/  4/  4 1013.9S
PINEY POINT MD   0648          140/  4/  4   N/A
POTOMAC MD       0700   49 47  150/  4/  4 1012.4    1
CAMBRIDGE MD     0648      43  170/  5/  7 1012.8F
LEWISETTA VA     0648      44  220/  6/  7 1013.0F
RAPPAHANNOCK LGT 0648          140/ 11/ 11 1014.3S
YORK RVR RNG VA  0648          170/  7/  8 1013.0S
YORKTOWN VA      0648      49  160/  2/  2 1013.4R
JAMESTOWN VA     0700   54 52   70/  2/  4   N/A     0
DOMINION TERM VA 0648          160/  2/  2 1013.9R
KIPTOPEKE VA     0648      49  160/  9/ 10   N/A
CHES BAY BRIDGE  0648      46  160/  8/  9 1013.7S
CAPE HENRY VA    0648          160/  7/  8   N/A
WILLOUBY STN VA  0648          180/  4/  5 1014.6R
S CRANEY ISL VA  0648           CALM  /  2 1013.4F
CAPE HENRY BUOY  0642      49                N/A     2/10   2/11
OFFSHORE WE BUOY 0651      48                N/A     3/11   2/11
64NM E OF VA BCH 0650   58 54  110/  6/  8 1014.2F   4/11   3/11
DUCK PIER NC     0648      49   90/  4/  4 1013.5F
44100 DUCK FRF   0635      49                N/A     4/12   2/12
44056 DUCK FRF   0630      50                N/A     4/10   2/11
OREGON INLET NC  0642      56  110/  3/  5 1013.9F
HATTERAS NC      0648      62  110/  7/ 11 1012.8F
DIAMOND SHLS NC  0650   68 73  110/ 16/ 19 1012.9F   6/ 7   3/ 8
CAPE LOOKOUT NC  0700   65     130/  8/  9 1012.4F
$$



USA.gov is the U.S. government's official web portal to all federal, state and local government web resources and services.